Regional Weather Roundup
Issued by NWS Little Rock, AR

Home | Current Version | Previous Version | Text Only | Print | Product List | Glossary Off
Versions: 1 2 3 4 5 6 7 8 9 10 11 12 13 14 15 16 17 18 19 20 21 22 23 24 25 26 27 28 29 30 31 32 33 34 35 36 37 38 39 40 41 42 43 44 45 46 47 48 49 50

384
ASUS44 KLZK 191605
RWRLZK

WEATHER ROUNDUP FOR ARKANSAS
NATIONAL WEATHER SERVICE LITTLE ROCK AR
1100 AM CDT SAT AUG 19 2017

NOTE: "FAIR" INDICATES FEW OR NO CLOUDS BELOW 12,000 FEET WITH NO
SIGNIFICANT WEATHER AND/OR OBSTRUCTIONS TO VISIBILITY.

ARZ001-003-010-029-191700-
NORTHWEST ARKANSAS

CITY           SKY/WX    TMP DP  RH WIND       PRES   REMARKS
FAYETTEVILLE   SUNNY     84  76  76 SW7       30.03S HX  93
FORT SMITH     SUNNY     85  75  72 CALM      30.00S HX  93
HARRISON       SUNNY     85  74  69 W7        30.03S HX  92
BENTONVILLE    SUNNY     84  73  70 W6        30.05R HX  91
ROGERS         SUNNY     84  75  74 SW10      30.05R HX  92
SILOAM SPGS    SUNNY     84  73  70 SW10      30.03S HX  91
HIGHFILL       SUNNY     85  76  74 W9        30.04S HX  94
SPRINGDALE     SUNNY     84  75  74 W9        30.05S HX  92
$$

ARZ004-005-016-191700-
NORTH CENTRAL ARKANSAS

CITY           SKY/WX    TMP DP  RH WIND       PRES   REMARKS
BATESVILLE     SUNNY     86  75  70 NW7       29.99S HX  95
FLIPPIN        CLOUDY    84  72  65 CALM      29.98S HX  89
MTN HOME       CLOUDY    84  74  71 VRB7      30.01S HX  91
$$

ARZ040-041-191700-
WEST CENTRAL ARKANSAS

CITY           SKY/WX    TMP DP  RH WIND       PRES   REMARKS
MENA           SUNNY     88  81  79 W5        30.03S HX 105
MOUNT IDA      SUNNY     87  73  62 VRB5      30.00S HX  94
$$

ARZ009-017-025-026-028-191700-
NORTHEAST ARKANSAS

CITY           SKY/WX    TMP DP  RH WIND       PRES   REMARKS
CORNING        FAIR      84  77  79 VRB5      29.98S HX  94
JONESBORO      SUNNY     85  77  77 W8        29.98S HX  95
NEWPORT        SUNNY     86  75  69 CALM      29.99S HX  95
WALNUT RIDGE   SUNNY     86  73  66 NW7       29.97F HX  93
BLYTHEVILLE    SUNNY     85  75  72 NW6       29.99R HX  93
$$

ARZ022-023-033-042-044-191700-
CENTRAL ARKANSAS

CITY           SKY/WX    TMP DP  RH WIND       PRES   REMARKS
LITTLE ROCK    MOSUNNY   86  79  79 CALM      29.99S HX  99
N LITTLE ROCK    N/A     85  77  77 W3        30.00S HX  95
JACKSONVILLE   SUNNY     86  77  75 W6        29.99S HX  98
CONWAY           N/A     86  77  74 CALM      29.97F HX  97
SEARCY         SUNNY     87  78  74 MISG      30.00F HX 100
HOT SPRINGS    SUNNY     88  77  69 NW7       30.01S HX 100
RUSSELLVILLE   SUNNY     84  75  74 CALM      29.99F HX  92
CLINTON        FAIR      84  77  79 CALM      29.99F HX  94
$$

ARZ036-191700-
EAST ARKANSAS

CITY           SKY/WX    TMP DP  RH WIND       PRES   REMARKS
WEST MEMPHIS   SUNNY     84  75  74 VRB3      29.99R HX  92
$$

ARZ050-053-066-070-073-191700-
SOUTHWEST ARKANSAS

CITY           SKY/WX    TMP DP  RH WIND       PRES   REMARKS
ARKADELPHIA    FAIR      89  79  72 SW6       30.00S HX 104
CAMDEN         SUNNY     91  75  59 VRB6G13   29.99S HX 102
TEXARKANA      SUNNY     89  74  60 W7        30.01S HX  98
EL DORADO      SUNNY     90  76  63 SW8       30.02S HX 101
DE QUEEN       SUNNY     87  78  74 W5        29.99S HX 100
$$

ARZ056-057-069-191700-
SOUTHEAST ARKANSAS

CITY           SKY/WX    TMP DP  RH WIND       PRES   REMARKS
PINE BLUFF     SUNNY     88  76  67 VRB7      30.00R HX  99
MONTICELLO     SUNNY     88  76  67 VRB3      30.01S HX  99

$$






USA.gov is the U.S. government's official web portal to all federal, state and local government web resources and services.